Location: Central Falls
(41.8900°N, 71.3929°W)
Time: 05:23:36
(UTC+00:00)

Vanguard 3 - Pass Details

Date: 08 December 2023
Orbit: 508 x 3239 km, 33.4° (Epoch: 01 March)

Event Time Altitude Azimuth Distance (km) Brightness Sun altitude
Rises 03:04:26 0° 252° (WSW) 6,330 11.9 -62.7°
Reaches altitude 10° 03:09:24 10° 248° (WSW) 4,907 11.2 -63.4°
Enters shadow 03:10:46 13° 246° (WSW) 4,501 11.0 -63.6°
